Location: Palomar Mountain Lodge
(33.3110°N, 116.8495°W)
Time: 19:38:11
(UTC-07:00)

Cosmos 1758 Rocket - Visible Passes

Search period start: 20 October 2019 00:00
Search period end: 30 October 2019 00:00
Orbit: 602 x 636 km, 82.5° (Epoch: 20 October)

Date Brightness Start Highest point End Pass type
(mag) Time Alt. Az. Time Alt. Az. Time Alt. Az.
20 Oct 5.8 06:21:37 10° SSE 06:25:22 30° E 06:29:10 10° NNE visible
21 Oct 4.9 18:28:57 10° NNW 18:33:14 47° W 18:37:32 10° SSW visible
22 Oct 6.3 18:46:51 10° NW 18:50:27 24° W 18:54:03 10° SW visible
23 Oct 6.7 05:37:05 10° SE 05:39:49 17° E 05:42:32 10° NE visible
23 Oct 7.1 19:05:46 10° WNW 19:07:35 12° W 19:09:24 10° WSW visible
24 Oct 5.5 05:53:07 10° SSE 05:56:58 32° E 06:00:51 10° NNE visible
25 Oct 3.9 06:09:56 10° S 06:14:13 68° E 06:18:32 10° NNE visible
26 Oct 3.6 06:27:18 10° SSW 06:31:32 57° W 06:35:51 10° N visible
27 Oct 6.5 05:08:30 10° SE 05:11:23 18° E 05:14:18 10° NE visible
27 Oct 7.1 18:37:41 10° WNW 18:39:10 12° W 18:40:41 10° WSW visible
28 Oct 5.2 05:24:38 10° SSE 05:28:33 35° E 05:32:31 10° NNE visible
29 Oct 3.7 05:41:30 10° S 05:45:48 73° E 05:50:10 10° N visible
